Weather History for Coeur d'Alene, ID

Change the Weather History Date:

Friday, September 20, 2013

  Actual Average Record
Temperature  
Mean Temperature 60 °F -  
Max Temperature 75 °F 68 °F 84 °F (2012)
Min Temperature 44 °F 41 °F 35 °F (2007)
Degree Days  
Heating Degree Days 6    
Growing Degree Days 10 (Base 50)    
Moisture  
Dew Point 44 °F    
Average Humidity 61    
Maximum Humidity 87    
Minimum Humidity 36    
Precipitation  
Precipitation 0.00 in - - ()
Sea Level Pressure  
Sea Level Pressure 29.78 in    
Wind  
Wind Speed 11 mph (NE)    
Max Wind Speed 16 mph    
Max Gust Speed 21 mph    
Visibility 10 miles    
Events      
Averages and records for this station are not official NWS values.
T = Trace of Precipitation, MM = Missing Value Source: NWS Daily Summary

Daily Weather History Graph

Daily Weather History Graph

Search for Another Location

Airport:

Trip Planner

Search our weather history database for the weather conditions in past years. The results will help you decide how hot, cold, wet, or windy it might be!

Date:

Astronomy

Sep. 20, 2013 Rise Set
Actual Time 6:31 AM PDT 6:48 PM PDT
Civil Twilight 6:00 AM PDT 7:19 PM PDT
Nautical Twilight 5:24 AM PDT 7:55 PM PDT
Astronomical Twilight 4:46 AM PDT 8:33 PM PDT
Moon 7:14 PM PDT (9/20) 8:00 AM PDT (9/20)
Length of Visible Light 13h 18m
Length of Day
12h 16m
Full, 98% of the Moon is Illuminated
Sep 20
Full
Sep 26
Last Quarter
Oct 4
New
Oct 11
First Quarter
Oct 18
Full

Hourly Weather History & Observations

Time (PDT) Temp. Windchill Dew Point Humidity Pressure Visibility Wind Dir Wind Speed Gust Speed Precip Events Conditions
12:15 AM 48.2 °F - 42.8 °F 82% 29.97 in 10.0 mi NE 9.2 mph - N/A   Clear
12:35 AM 48.2 °F - 42.8 °F 82% 29.97 in 10.0 mi ENE 8.1 mph - N/A   Clear
12:55 AM 48.2 °F - 42.8 °F 82% 29.97 in 10.0 mi East 6.9 mph - N/A   Clear
1:15 AM 46.4 °F 42.4 °F 41.0 °F 81% 29.97 in 10.0 mi ENE 8.1 mph - N/A   Clear
1:35 AM 46.4 °F 41.9 °F 42.8 °F 87% 29.96 in 10.0 mi ENE 9.2 mph - N/A   Clear
1:55 AM 46.4 °F 41.9 °F 42.8 °F 87% 29.96 in 10.0 mi ENE 9.2 mph - N/A   Clear
2:15 AM 46.4 °F 41.9 °F 42.8 °F 87% 29.96 in 10.0 mi ENE 9.2 mph - N/A   Clear
2:35 AM 48.2 °F - 41.0 °F 76% 29.95 in 10.0 mi ENE 8.1 mph - N/A   Clear
2:55 AM 46.4 °F 42.9 °F 41.0 °F 81% 29.95 in 10.0 mi NE 6.9 mph - N/A   Clear
3:15 AM 46.4 °F 42.4 °F 41.0 °F 81% 29.94 in 10.0 mi ENE 8.1 mph - N/A   Clear
3:35 AM 46.4 °F 41.9 °F 42.8 °F 87% 29.94 in 10.0 mi NE 9.2 mph - N/A   Clear
3:55 AM 46.4 °F 42.9 °F 42.8 °F 87% 29.93 in 10.0 mi ENE 6.9 mph - N/A   Clear
4:15 AM 46.4 °F 42.4 °F 41.0 °F 81% 29.93 in 10.0 mi ENE 8.1 mph - N/A   Clear
4:35 AM 46.4 °F 41.9 °F 41.0 °F 81% 29.92 in 10.0 mi NE 9.2 mph - N/A   Clear
4:55 AM 46.4 °F 41.5 °F 41.0 °F 81% 29.92 in 10.0 mi NE 10.4 mph - N/A   Clear
5:15 AM 46.4 °F 41.9 °F 41.0 °F 81% 29.92 in 10.0 mi ENE 9.2 mph - N/A   Clear
5:35 AM 44.6 °F 39.2 °F 39.2 °F 81% 29.91 in 10.0 mi ENE 10.4 mph - N/A   Clear
5:55 AM 44.6 °F 39.7 °F 41.0 °F 87% 29.91 in 10.0 mi ENE 9.2 mph - N/A   Clear
6:15 AM 44.6 °F 39.2 °F 41.0 °F 87% 29.91 in 10.0 mi ENE 10.4 mph - N/A   Clear
6:35 AM 44.6 °F 38.8 °F 41.0 °F 87% 29.91 in 10.0 mi ENE 11.5 mph - N/A   Clear
6:55 AM 46.4 °F 41.5 °F 42.8 °F 87% 29.91 in 10.0 mi ENE 10.4 mph - N/A   Clear
7:15 AM 46.4 °F 41.9 °F 42.8 °F 87% 29.90 in 10.0 mi ENE 9.2 mph - N/A   Clear
7:35 AM 48.2 °F - 42.8 °F 82% 29.90 in 10.0 mi ENE 8.1 mph - N/A   Clear
7:55 AM 50.0 °F - 44.6 °F 82% 29.90 in 10.0 mi ENE 8.1 mph - N/A   Clear
8:15 AM 51.8 °F - 44.6 °F 76% 29.90 in 10.0 mi NNE 15.0 mph - N/A   Clear
8:35 AM 53.6 °F - 44.6 °F 72% 29.89 in 10.0 mi NE 15.0 mph - N/A   Clear
8:55 AM 53.6 °F - 44.6 °F 72% 29.88 in 10.0 mi NE 15.0 mph - N/A   Clear
9:15 AM 55.4 °F - 44.6 °F 67% 29.88 in 10.0 mi NNE 15.0 mph - N/A   Clear
9:35 AM 57.2 °F - 46.4 °F 67% 29.87 in 10.0 mi NNE 15.0 mph - N/A   Clear
9:55 AM 57.2 °F - 46.4 °F 67% 29.87 in 10.0 mi NE 12.7 mph - N/A   Clear
10:15 AM 59.0 °F - 46.4 °F 63% 29.85 in 10.0 mi NE 15.0 mph - N/A   Clear
10:35 AM 60.8 °F - 46.4 °F 59% 29.85 in 10.0 mi NNE 15.0 mph - N/A   Clear
10:55 AM 62.6 °F - 46.4 °F 55% 29.84 in 10.0 mi NE 16.1 mph - N/A   Clear
11:15 AM 62.6 °F - 46.4 °F 55% 29.82 in 10.0 mi NNE 13.8 mph - N/A   Clear
11:35 AM 64.4 °F - 48.2 °F 56% 29.81 in 10.0 mi NE 15.0 mph 20.7 mph N/A   Clear
11:55 AM 66.2 °F - 46.4 °F 49% 29.80 in 10.0 mi NNE 16.1 mph 19.6 mph N/A   Clear
12:15 PM 68.0 °F - 48.2 °F 49% 29.79 in 10.0 mi NNE 15.0 mph - N/A   Clear
12:35 PM 69.8 °F - 46.4 °F 43% 29.78 in 10.0 mi NNE 15.0 mph - N/A   Clear
12:55 PM 69.8 °F - 46.4 °F 43% 29.77 in 10.0 mi NNE 13.8 mph - N/A   Clear
1:15 PM 71.6 °F - 46.4 °F 41% 29.76 in 10.0 mi NNE 12.7 mph - N/A   Clear
1:35 PM 71.6 °F - 48.2 °F 43% 29.74 in 10.0 mi NNE 12.7 mph - N/A   Clear
1:55 PM 73.4 °F - 48.2 °F 41% 29.73 in 10.0 mi NNE 11.5 mph - N/A   Clear
2:15 PM 73.4 °F - 48.2 °F 41% 29.72 in 10.0 mi NNE 11.5 mph - N/A   Clear
2:35 PM 73.4 °F - 46.4 °F 38% 29.71 in 10.0 mi NNE 10.4 mph - N/A   Clear
2:55 PM 73.4 °F - 46.4 °F 38% 29.70 in 10.0 mi NNE 11.5 mph - N/A   Clear
3:15 PM 73.4 °F - 46.4 °F 38% 29.69 in 10.0 mi NNE 12.7 mph - N/A   Clear
3:35 PM 75.2 °F - 46.4 °F 36% 29.68 in 10.0 mi NNE 12.7 mph - N/A   Clear
3:55 PM 75.2 °F - 46.4 °F 36% 29.68 in 10.0 mi NE 13.8 mph 17.3 mph N/A   Clear
4:15 PM 73.4 °F - 46.4 °F 38% 29.66 in 10.0 mi NNE 13.8 mph - N/A   Clear
4:35 PM 73.4 °F - 44.6 °F 36% 29.65 in 10.0 mi NNE 13.8 mph - N/A   Clear
4:55 PM 73.4 °F - 44.6 °F 36% 29.64 in 10.0 mi NNE 13.8 mph - N/A   Clear
5:15 PM 71.6 °F - 44.6 °F 38% 29.64 in 10.0 mi NNE 12.7 mph - N/A   Clear
5:35 PM 71.6 °F - 44.6 °F 38% 29.63 in 10.0 mi NNE 16.1 mph - N/A   Clear
5:55 PM 71.6 °F - 44.6 °F 38% 29.62 in 10.0 mi NNE 13.8 mph - N/A   Clear
6:15 PM 68.0 °F - 44.6 °F 43% 29.62 in 10.0 mi NNE 11.5 mph - N/A   Clear
6:35 PM 66.2 °F - 44.6 °F 46% 29.62 in 10.0 mi NNE 10.4 mph - N/A   Clear
6:55 PM 66.2 °F - 44.6 °F 46% 29.62 in 10.0 mi NNE 13.8 mph - N/A   Clear
7:15 PM 64.4 °F - 44.6 °F 49% 29.62 in 10.0 mi NNE 12.7 mph 17.3 mph N/A   Clear
7:35 PM 64.4 °F - 44.6 °F 49% 29.62 in 10.0 mi NE 11.5 mph 20.7 mph N/A   Clear
7:55 PM 64.4 °F - 42.8 °F 45% 29.62 in 10.0 mi NNE 13.8 mph - N/A   Clear
8:15 PM 62.6 °F - 44.6 °F 52% 29.62 in 10.0 mi NE 11.5 mph - N/A   Clear
8:35 PM 62.6 °F - 44.6 °F 52% 29.62 in 10.0 mi NE 10.4 mph - N/A   Clear
8:55 PM 60.8 °F - 42.8 °F 52% 29.61 in 10.0 mi NE 10.4 mph - N/A   Clear
9:15 PM 60.8 °F - 44.6 °F 55% 29.61 in 10.0 mi NE 12.7 mph - N/A   Clear
9:35 PM 59.0 °F - 42.8 °F 55% 29.60 in 10.0 mi ENE 9.2 mph - N/A   Clear
9:55 PM 59.0 °F - 44.6 °F 59% 29.60 in 10.0 mi NE 9.2 mph - N/A   Clear
10:15 PM 60.8 °F - 44.6 °F 55% 29.59 in 10.0 mi NNE 12.7 mph - N/A   Clear
10:35 PM 60.8 °F - 44.6 °F 55% 29.59 in 10.0 mi NNE 15.0 mph - N/A   Clear
10:55 PM 60.8 °F - 44.6 °F 55% 29.59 in 10.0 mi NNE 13.8 mph - N/A   Clear
11:15 PM 60.8 °F - 42.8 °F 52% 29.58 in 10.0 mi NNE 15.0 mph - N/A   Clear
11:35 PM 60.8 °F - 42.8 °F 52% 29.57 in 10.0 mi NNE 15.0 mph - N/A   Clear
11:55 PM 59.0 °F - 44.6 °F 59% 29.58 in 10.0 mi East 5.8 mph - N/A   Clear